Location: Unspecified
(33.6682°S, 0.0000°E)
Time: 20:32:50
(UTC+00:00)

Vanguard 2 Rocket - Pass Details

Date: 22 June 2019
Orbit: 553 x 3327 km, 32.9° (Epoch: 21 August)

Event Time Altitude Azimuth Distance (km) Brightness Sun altitude
Rises 06:41:33 0° 322° (NW) 7,273 11.4 -5.1°
Reaches altitude 10° 06:47:15 10° 329° (NNW) 6,112 11.1 -4.0°
Maximum altitude 07:03:16 38° 28° (NNE) 3,391 10.5 -1.1°
Drops below altitude 10° 07:13:58 10° 91° (E) 4,146 11.4 0.9°
Sets 07:16:57 0° 99° (E) 4,802 11.5 1.4°
